CSN3507 ZSPD-RKSI

Flight info

Callsign CSN3507
Flight time 1h 26m
Altitude 33000
Route LAMEN A593 SADLI Y590 ELGEP Y722 MAKSA
Aircraft B738/M-SDE2E3FGILRWXY/LB2

Departure

Time 2026-05-04 14:31
Airport Shanghai Pudong International Airport (ZSPD)

Arrival

Time 2026-05-04 15:58
Airport Incheon International Airport (RKSI)
Time Latitude Longitude Altitude Speed Heading
2026-05-04 14:11 31.15630 121.80619 21 ft 0 kts 251°
2026-05-04 14:21 31.15633 121.80632 21 ft 2 kts 251°
2026-05-04 14:21 31.15637 121.80645 21 ft 2 kts 251°
2026-05-04 14:21 31.15640 121.80656 21 ft 2 kts 251°
2026-05-04 14:21 31.15644 121.80669 21 ft 2 kts 251°
2026-05-04 14:22 31.15648 121.80683 21 ft 2 kts 251°
2026-05-04 14:22 31.15653 121.80698 21 ft 2 kts 251°
2026-05-04 14:22 31.15657 121.80714 21 ft 2 kts 251°
2026-05-04 14:22 31.15657 121.80729 21 ft 2 kts 303°
2026-05-04 14:23 31.15630 121.80742 21 ft 2 kts 339°
2026-05-04 14:23 31.15616 121.80748 21 ft 1 kts 342°
2026-05-04 14:25 31.15618 121.80748 21 ft 1 kts 342°
2026-05-04 14:25 31.15629 121.80744 21 ft 3 kts 346°
2026-05-04 14:26 31.15655 121.80748 21 ft 5 kts 28°
2026-05-04 14:26 31.15679 121.80782 21 ft 8 kts 66°
2026-05-04 14:26 31.15695 121.80836 21 ft 10 kts 70°
2026-05-04 14:26 31.15712 121.80899 21 ft 9 kts 73°
2026-05-04 14:27 31.15720 121.80927 21 ft 0 kts 73°
2026-05-04 14:28 31.15722 121.80937 21 ft 3 kts 73°
2026-05-04 14:29 31.15742 121.81010 21 ft 9 kts 73°
2026-05-04 14:29 31.15783 121.81168 21 ft 15 kts 84°
2026-05-04 14:30 31.15732 121.81236 21 ft 13 kts 175°
2026-05-04 14:30 31.15662 121.81263 21 ft 16 kts 164°
2026-05-04 14:30 31.14980 121.81521 21 ft 118 kts 162°
2026-05-04 14:31 31.14172 121.81821 147 ft 156 kts 162°
2026-05-04 14:31 31.12062 121.82505 1315 ft 187 kts 166°
2026-05-04 14:32 31.09880 121.83709 2305 ft 192 kts 148°
2026-05-04 14:32 31.08832 121.84505 2784 ft 193 kts 146°
2026-05-04 14:32 31.07805 121.85322 2988 ft 197 kts 145°
2026-05-04 14:32 31.06823 121.86117 2998 ft 195 kts 145°
2026-05-04 14:33 31.05791 121.86957 3004 ft 194 kts 145°
2026-05-04 14:33 31.04754 121.87804 3073 ft 190 kts 145°
2026-05-04 14:33 31.03721 121.88648 3557 ft 212 kts 145°
2026-05-04 14:33 31.02600 121.89564 4042 ft 219 kts 145°
2026-05-04 14:34 31.00919 121.91050 4767 ft 254 kts 139°
2026-05-04 14:34 30.99075 121.92978 5608 ft 268 kts 138°
2026-05-04 14:34 30.97391 121.94762 6265 ft 268 kts 138°
2026-05-04 14:34 30.96124 121.96103 6745 ft 269 kts 138°
2026-05-04 14:35 30.94748 121.97590 7265 ft 271 kts 133°
2026-05-04 14:35 30.93820 121.99733 7828 ft 276 kts 104°
2026-05-04 14:35 30.93966 122.03165 8672 ft 283 kts 75°
2026-05-04 14:35 30.94903 122.06628 9509 ft 287 kts 73°
2026-05-04 14:36 30.95612 122.09178 10125 ft 296 kts 73°
2026-05-04 14:36 30.96321 122.11733 10836 ft 318 kts 73°
2026-05-04 14:36 30.97464 122.15847 11913 ft 347 kts 73°
2026-05-04 14:36 30.98693 122.20280 12959 ft 374 kts 73°
2026-05-04 14:37 30.99929 122.24719 13773 ft 399 kts 76°
2026-05-04 14:37 31.00061 122.29129 14481 ft 403 kts 95°
2026-05-04 14:37 31.00002 122.33957 15269 ft 408 kts 91°
2026-05-04 14:37 31.00002 122.39055 16075 ft 413 kts 91°
2026-05-04 14:38 31.00005 122.44070 16858 ft 418 kts 91°
2026-05-04 14:38 31.00014 122.49334 17671 ft 424 kts 91°
2026-05-04 14:38 31.00022 122.54844 18510 ft 430 kts 91°
2026-05-04 14:38 31.00028 122.60338 19335 ft 436 kts 91°
2026-05-04 14:39 31.00031 122.65407 20087 ft 442 kts 92°
2026-05-04 14:39 31.00032 122.71001 20903 ft 448 kts 92°
2026-05-04 14:39 31.00031 122.76564 21704 ft 454 kts 92°
2026-05-04 14:40 31.00022 122.87109 23193 ft 467 kts 92°
2026-05-04 14:40 31.00017 122.90828 23709 ft 471 kts 92°
2026-05-04 14:40 31.00010 122.94648 24233 ft 477 kts 92°
2026-05-04 14:40 31.00279 122.98521 24735 ft 484 kts 83°
2026-05-04 14:41 31.01240 123.02292 25199 ft 492 kts 66°
2026-05-04 14:41 31.03049 123.05667 25715 ft 498 kts 51°
2026-05-04 14:41 31.07352 123.12020 26804 ft 505 kts 53°
2026-05-04 14:42 31.11506 123.18752 27119 ft 513 kts 54°
2026-05-04 14:42 31.13572 123.22129 27119 ft 512 kts 54°
2026-05-04 14:42 31.15634 123.25501 27128 ft 511 kts 54°
2026-05-04 14:43 31.17691 123.28869 27128 ft 511 kts 54°
2026-05-04 14:43 31.19745 123.32234 27129 ft 511 kts 54°
2026-05-04 14:43 31.21802 123.35607 27130 ft 511 kts 54°
2026-05-04 14:43 31.23870 123.39001 27129 ft 512 kts 54°
2026-05-04 14:44 31.25927 123.42380 27130 ft 511 kts 54°
2026-05-04 14:44 31.27981 123.45759 27130 ft 512 kts 53°
2026-05-04 14:44 31.30037 123.49141 27130 ft 512 kts 54°
2026-05-04 14:44 31.32090 123.52522 27130 ft 511 kts 53°
2026-05-04 14:45 31.34151 123.55902 27131 ft 511 kts 53°
2026-05-04 14:45 31.36215 123.59278 27131 ft 511 kts 53°
2026-05-04 14:45 31.38288 123.62667 27131 ft 512 kts 53°
2026-05-04 14:45 31.40356 123.66051 27130 ft 512 kts 54°
2026-05-04 14:46 31.42422 123.69435 27126 ft 511 kts 54°
2026-05-04 14:46 31.44477 123.72805 27128 ft 511 kts 54°
2026-05-04 14:46 31.46543 123.76194 27127 ft 511 kts 54°
2026-05-04 14:46 31.48604 123.79579 27127 ft 512 kts 54°
2026-05-04 14:47 31.50662 123.82963 27128 ft 512 kts 54°
2026-05-04 14:47 31.52568 123.86098 27131 ft 511 kts 54°
2026-05-04 14:47 31.54327 123.88995 27559 ft 507 kts 54°
2026-05-04 14:47 31.56444 123.92484 28063 ft 508 kts 54°
2026-05-04 14:48 31.58490 123.95859 28559 ft 508 kts 54°
2026-05-04 14:48 31.60464 123.99268 29004 ft 509 kts 60°
2026-05-04 14:48 31.61650 124.02736 29422 ft 508 kts 74°
2026-05-04 14:48 31.62611 124.07100 30010 ft 507 kts 76°
2026-05-04 14:49 31.63496 124.11126 30499 ft 508 kts 76°
2026-05-04 14:49 31.64382 124.15112 30990 ft 507 kts 75°
2026-05-04 14:49 31.65268 124.19096 31481 ft 506 kts 75°
2026-05-04 14:49 31.66134 124.22986 31962 ft 506 kts 75°
2026-05-04 14:50 31.67022 124.26980 32457 ft 505 kts 75°
2026-05-04 14:50 31.67902 124.30946 32948 ft 505 kts 75°
2026-05-04 14:50 31.68755 124.34799 33090 ft 507 kts 75°
2026-05-04 14:50 31.69640 124.38798 33139 ft 505 kts 75°
2026-05-04 14:51 31.71390 124.46732 33158 ft 503 kts 75°
2026-05-04 14:51 31.73134 124.54654 33179 ft 503 kts 75°
2026-05-04 14:52 31.74873 124.62589 33187 ft 503 kts 75°
2026-05-04 14:52 31.76611 124.70540 33181 ft 502 kts 76°
2026-05-04 14:53 31.78338 124.78468 33181 ft 503 kts 76°
2026-05-04 14:53 31.80060 124.86406 33182 ft 502 kts 75°
2026-05-04 14:54 31.81781 124.94360 33183 ft 501 kts 75°
2026-05-04 14:54 31.82880 125.02350 33186 ft 499 kts 94°
2026-05-04 14:55 31.82218 125.06332 33185 ft 499 kts 107°
2026-05-04 14:55 31.81386 125.10286 33189 ft 501 kts 103°
2026-05-04 14:55 31.80024 125.18274 33182 ft 500 kts 102°
2026-05-04 14:56 31.78742 125.26077 33185 ft 500 kts 101°
2026-05-04 14:56 31.77416 125.34125 33185 ft 500 kts 101°
2026-05-04 14:57 31.76095 125.42109 33186 ft 499 kts 101°
2026-05-04 14:57 31.74764 125.50125 33186 ft 500 kts 101°
2026-05-04 14:58 31.73431 125.58115 33186 ft 500 kts 101°
2026-05-04 14:58 31.72187 125.66117 33143 ft 501 kts 93°
2026-05-04 14:59 31.72491 125.70155 33188 ft 499 kts 77°
2026-05-04 14:59 31.73564 125.74010 33208 ft 498 kts 70°
2026-05-04 15:00 31.76381 125.85787 33177 ft 499 kts 72°
2026-05-04 15:00 31.77815 125.89445 33169 ft 495 kts 55°
2026-05-04 15:00 31.79922 125.92613 33214 ft 493 kts 47°
2026-05-04 15:01 31.85296 125.97249 33186 ft 481 kts 17°
2026-05-04 15:01 31.88498 125.98349 33217 ft 478 kts 13°
2026-05-04 15:01 31.94796 126.00853 33184 ft 480 kts 16°
2026-05-04 15:02 32.00997 126.03471 33184 ft 480 kts 16°
2026-05-04 15:02 32.07226 126.06113 33182 ft 480 kts 16°
2026-05-04 15:03 32.13475 126.08759 33184 ft 479 kts 16°
2026-05-04 15:03 32.19730 126.11411 33184 ft 481 kts 16°
2026-05-04 15:04 32.25984 126.14067 33183 ft 480 kts 16°
2026-05-04 15:04 32.32265 126.16738 33183 ft 480 kts 16°
2026-05-04 15:05 32.38515 126.19400 33183 ft 480 kts 16°
2026-05-04 15:05 32.44775 126.22070 33186 ft 480 kts 16°
2026-05-04 15:06 32.51035 126.24743 33185 ft 480 kts 16°
2026-05-04 15:07 32.60214 126.28677 33186 ft 480 kts 16°
2026-05-04 15:07 32.66464 126.31360 33186 ft 480 kts 16°
2026-05-04 15:08 32.72725 126.34052 33183 ft 480 kts 16°
2026-05-04 15:08 32.79008 126.36758 33185 ft 480 kts 16°
2026-05-04 15:09 32.85266 126.39456 33187 ft 480 kts 16°
2026-05-04 15:09 32.91512 126.42155 33187 ft 480 kts 16°
2026-05-04 15:10 33.00910 126.46225 33184 ft 483 kts 15°
2026-05-04 15:11 33.10424 126.50316 33191 ft 493 kts 14°
2026-05-04 15:11 33.16767 126.53040 33187 ft 496 kts 14°
2026-05-04 15:12 33.22143 126.55357 33187 ft 494 kts 14°
2026-05-04 15:12 33.27888 126.57837 33189 ft 495 kts 14°
2026-05-04 15:13 33.33654 126.60329 33188 ft 495 kts 14°
2026-05-04 15:13 33.39380 126.62812 33189 ft 495 kts 14°
2026-05-04 15:14 33.44669 126.65114 33189 ft 494 kts 14°
2026-05-04 15:14 33.49711 126.67313 33180 ft 494 kts 14°
2026-05-04 15:15 33.56656 126.69804 33182 ft 483 kts
2026-05-04 15:15 33.65123 126.70825 33178 ft 481 kts 359°
2026-05-04 15:16 33.75366 126.71906 33180 ft 481 kts 359°
2026-05-04 15:17 33.85344 126.72961 33180 ft 481 kts 359°
2026-05-04 15:17 33.95287 126.74002 33181 ft 481 kts 359°
2026-05-04 15:18 34.01911 126.74695 33180 ft 481 kts 359°
2026-05-04 15:19 34.10614 126.75606 33179 ft 481 kts 359°
2026-05-04 15:19 34.21229 126.76720 33178 ft 481 kts 359°
2026-05-04 15:20 34.27893 126.77424 33176 ft 482 kts 359°
2026-05-04 15:20 34.33684 126.78038 33165 ft 481 kts 359°
2026-05-04 15:21 34.39368 126.78643 33157 ft 481 kts 359°
2026-05-04 15:22 34.47938 126.79556 33152 ft 481 kts 359°
2026-05-04 15:22 34.58773 126.80712 33153 ft 482 kts 359°
2026-05-04 15:23 34.65138 126.81394 33151 ft 482 kts 359°
2026-05-04 15:23 34.72303 126.82161 33156 ft 481 kts 359°
2026-05-04 15:24 34.85658 126.83596 33156 ft 482 kts 359°
2026-05-04 15:25 34.92286 126.84317 33158 ft 481 kts 358°
2026-05-04 15:26 35.01748 126.85341 33152 ft 477 kts 356°
2026-05-04 15:26 35.11638 126.86401 33154 ft 477 kts 356°
2026-05-04 15:27 35.20194 126.87327 32833 ft 483 kts 356°
2026-05-04 15:28 35.26609 126.88026 31848 ft 479 kts 356°
2026-05-04 15:28 35.30118 126.88406 31316 ft 477 kts 357°
2026-05-04 15:28 35.37252 126.89181 30251 ft 482 kts 357°
2026-05-04 15:29 35.40759 126.89563 29733 ft 483 kts 358°
2026-05-04 15:30 35.54080 126.91019 27767 ft 485 kts 358°
2026-05-04 15:30 35.64057 126.92112 26303 ft 485 kts 359°
2026-05-04 15:31 35.70525 126.92823 25312 ft 477 kts 359°
2026-05-04 15:31 35.73761 126.93177 24809 ft 473 kts 359°
2026-05-04 15:32 35.82861 126.94178 23385 ft 462 kts 359°
2026-05-04 15:32 35.89338 126.94892 22354 ft 455 kts 360°
2026-05-04 15:33 35.95530 126.95578 22152 ft 451 kts 360°
2026-05-04 15:34 36.04390 126.96557 21646 ft 451 kts
2026-05-04 15:34 36.07546 126.96908 21384 ft 448 kts
2026-05-04 15:34 36.13402 126.97557 20906 ft 445 kts
2026-05-04 15:35 36.19198 126.98201 20429 ft 441 kts
2026-05-04 15:35 36.22201 126.98535 20180 ft 440 kts
2026-05-04 15:35 36.25173 126.98866 19933 ft 438 kts
2026-05-04 15:36 36.31142 126.99532 19434 ft 435 kts
2026-05-04 15:36 36.33558 126.99801 19232 ft 433 kts
2026-05-04 15:36 36.36155 127.00092 19013 ft 431 kts
2026-05-04 15:37 36.38869 127.00298 18760 ft 427 kts 355°
2026-05-04 15:37 36.41493 127.00249 18557 ft 424 kts 355°
2026-05-04 15:37 36.43889 127.00174 18349 ft 423 kts 355°
2026-05-04 15:37 36.46488 127.00445 18130 ft 424 kts
2026-05-04 15:38 36.49241 127.00417 18150 ft 417 kts 351°
2026-05-04 15:38 36.52220 127.00193 18130 ft 421 kts 353°
2026-05-04 15:38 36.55250 127.00016 18135 ft 420 kts 353°
2026-05-04 15:38 36.58302 126.99858 18128 ft 420 kts 354°
2026-05-04 15:39 36.61383 126.99704 18128 ft 421 kts 354°
2026-05-04 15:39 36.64503 126.99551 18128 ft 421 kts 354°
2026-05-04 15:39 36.70570 126.99180 18102 ft 418 kts 348°
2026-05-04 15:40 36.73354 126.98172 18142 ft 410 kts 333°
2026-05-04 15:40 36.75411 126.96605 18101 ft 403 kts 318°
2026-05-04 15:40 36.77472 126.94278 18151 ft 403 kts 313°
2026-05-04 15:40 36.79652 126.91612 18135 ft 402 kts 312°
2026-05-04 15:41 36.81628 126.89148 18124 ft 402 kts 312°
2026-05-04 15:41 36.83583 126.86696 18129 ft 402 kts 312°
2026-05-04 15:41 36.85544 126.84230 18128 ft 403 kts 312°
2026-05-04 15:41 36.87528 126.81732 18127 ft 403 kts 312°
2026-05-04 15:42 36.89496 126.79252 18127 ft 403 kts 312°
2026-05-04 15:42 36.91459 126.76775 18127 ft 404 kts 312°
2026-05-04 15:42 36.93428 126.74291 18127 ft 404 kts 312°
2026-05-04 15:42 36.95321 126.71899 18127 ft 404 kts 312°
2026-05-04 15:43 36.96949 126.69840 18014 ft 406 kts 312°
2026-05-04 15:43 36.98605 126.67745 17522 ft 405 kts 312°
2026-05-04 15:43 37.00205 126.65721 17115 ft 399 kts 312°
2026-05-04 15:43 37.01659 126.63570 16647 ft 392 kts 304°
2026-05-04 15:44 37.02884 126.61393 16257 ft 387 kts 298°
2026-05-04 15:44 37.03739 126.58550 15740 ft 381 kts 281°
2026-05-04 15:44 37.03895 126.54743 15172 ft 378 kts 274°
2026-05-04 15:44 37.04721 126.51190 14556 ft 380 kts 296°
2026-05-04 15:45 37.06779 126.48067 13915 ft 383 kts 319°
2026-05-04 15:45 37.09045 126.46479 13410 ft 385 kts 335°
2026-05-04 15:45 37.11322 126.44928 12881 ft 377 kts 320°
2026-05-04 15:45 37.13428 126.42949 12428 ft 374 kts 321°
2026-05-04 15:46 37.15484 126.41061 12045 ft 371 kts 322°
2026-05-04 15:46 37.17374 126.39338 12035 ft 370 kts 322°
2026-05-04 15:46 37.19191 126.37763 11977 ft 375 kts 327°
2026-05-04 15:46 37.21337 126.36614 11471 ft 376 kts 338°
2026-05-04 15:47 37.24106 126.35330 10884 ft 364 kts 337°
2026-05-04 15:47 37.26441 126.34233 10366 ft 357 kts 336°
2026-05-04 15:47 37.28728 126.33155 9854 ft 350 kts 336°
2026-05-04 15:47 37.30776 126.32189 9390 ft 345 kts 336°
2026-05-04 15:48 37.33095 126.31094 8859 ft 340 kts 336°
2026-05-04 15:48 37.35284 126.30060 8352 ft 336 kts 336°
2026-05-04 15:48 37.39195 126.28211 7439 ft 330 kts 336°
2026-05-04 15:49 37.41432 126.27154 6822 ft 308 kts 336°
2026-05-04 15:49 37.43362 126.26241 6270 ft 290 kts 336°
2026-05-04 15:49 37.45200 126.25369 5665 ft 278 kts 337°
2026-05-04 15:49 37.46881 126.24572 5115 ft 269 kts 337°
2026-05-04 15:50 37.48143 126.23973 4698 ft 263 kts 337°
2026-05-04 15:50 37.49608 126.23278 4217 ft 257 kts 337°
2026-05-04 15:50 37.50994 126.22621 3754 ft 253 kts 338°
2026-05-04 15:50 37.52329 126.21987 3308 ft 249 kts 338°
2026-05-04 15:51 37.53956 126.21214 2763 ft 244 kts 338°
2026-05-04 15:51 37.55761 126.20772 2151 ft 240 kts
2026-05-04 15:51 37.57641 126.21750 1636 ft 223 kts 39°
2026-05-04 15:51 37.58631 126.23006 1609 ft 207 kts 51°
2026-05-04 15:52 37.59512 126.24425 1608 ft 203 kts 54°
2026-05-04 15:52 37.60264 126.25726 1611 ft 205 kts 59°
2026-05-04 15:52 37.60620 126.27401 1588 ft 202 kts 97°
2026-05-04 15:52 37.60202 126.29011 1632 ft 199 kts 117°
2026-05-04 15:53 37.59389 126.30186 1610 ft 197 kts 146°
2026-05-04 15:53 37.58439 126.31033 1622 ft 198 kts 146°
2026-05-04 15:53 37.57448 126.31919 1610 ft 194 kts 146°
2026-05-04 15:53 37.56521 126.32748 1634 ft 176 kts 146°
2026-05-04 15:54 37.55667 126.33510 1602 ft 171 kts 146°
2026-05-04 15:54 37.54827 126.34260 1583 ft 160 kts 146°
2026-05-04 15:54 37.54044 126.34958 1606 ft 152 kts 146°
2026-05-04 15:54 37.53287 126.35632 1568 ft 157 kts 146°
2026-05-04 15:55 37.52504 126.36330 1378 ft 148 kts 146°
2026-05-04 15:55 37.51810 126.36949 1192 ft 135 kts 146°
2026-05-04 15:55 37.51167 126.37523 1018 ft 132 kts 146°
2026-05-04 15:55 37.50509 126.38119 886 ft 133 kts 146°
2026-05-04 15:56 37.49842 126.38713 767 ft 135 kts 145°
2026-05-04 15:56 37.49200 126.39289 587 ft 135 kts 144°
2026-05-04 15:56 37.48573 126.39855 487 ft 135 kts 145°
2026-05-04 15:56 37.47951 126.40409 348 ft 136 kts 145°
2026-05-04 15:57 37.47350 126.40948 192 ft 139 kts 146°
2026-05-04 15:57 37.46718 126.41495 41 ft 134 kts 146°
2026-05-04 15:57 37.46136 126.42006 29 ft 108 kts 144°
2026-05-04 15:57 37.45755 126.42346 29 ft 61 kts 144°
2026-05-04 15:58 37.45588 126.42518 29 ft 15 kts 121°
2026-05-04 15:58 37.45549 126.42610 29 ft 15 kts 117°
2026-05-04 15:58 37.45516 126.42692 29 ft 14 kts 115°
2026-05-04 15:58 37.45480 126.42794 29 ft 18 kts 114°
2026-05-04 15:59 37.45432 126.42905 29 ft 20 kts 145°
2026-05-04 15:59 37.45324 126.42991 29 ft 24 kts 144°
2026-05-04 15:59 37.45225 126.43085 29 ft 21 kts 142°
2026-05-04 15:59 37.45137 126.43161 29 ft 18 kts 147°
2026-05-04 16:00 37.45083 126.43242 29 ft 14 kts 97°
2026-05-04 16:00 37.45109 126.43314 29 ft 12 kts 49°
2026-05-04 16:00 37.45160 126.43399 29 ft 17 kts 55°
2026-05-04 16:00 37.45220 126.43508 29 ft 19 kts 53°
2026-05-04 16:01 37.45278 126.43607 29 ft 17 kts 54°
2026-05-04 16:01 37.45333 126.43706 29 ft 18 kts 55°
2026-05-04 16:01 37.45389 126.43800 29 ft 18 kts 40°
2026-05-04 16:01 37.45443 126.43888 29 ft 16 kts 58°
2026-05-04 16:02 37.45490 126.43971 29 ft 10 kts 60°
2026-05-04 16:02 37.45478 126.44015 29 ft 7 kts 149°
2026-05-04 16:02 37.45431 126.44052 29 ft 4 kts 148°
2026-05-04 16:03 37.45426 126.44056 29 ft 0 kts 148°